Regional Weather Roundup
Issued by NWS

Home | Current Version | Previous Version | Graphics & Text | Print | Product List | Glossary On
Versions: 1 2 3 4 5 6 7 8 9 10 11 12 13 14 15 16 17 18 19 20 21 22 23 24 25 26 27 28 29 30 31 32 33 34 35 36 37 38 39 40 41 42 43 44 45 46 47 48 49 50
000
ASUS43 KDTX 150401
RWRMI
MICHIGAN HOURLY REGIONAL WEATHER ROUNDUP
NATIONAL WEATHER SERVICE DETROIT/PONTIAC MI
1200 AM EDT MON SEP 15 2014

NOTE: "FAIR" INDICATES FEW OR NO CLOUDS BELOW 12,000 FEET WITH NO
SIGNIFICANT WEATHER AND/OR OBSTRUCTION TO VISIBILITY.

MIZ047>049-052>055-059>063-066>070-074>076-081>083-150500-
SOUTHEAST LOWER MICHIGAN

CITY           SKY/WX    TMP DP  RH WIND       PRES   REMARKS
ADRIAN         CLEAR     47  45  93 CALM      30.22S
ALMA           CLEAR     44  43  96 S5        30.19S
ANN ARBOR      FOG       41  39  93 CALM      30.21R VSB 1
BAD AXE        CLEAR     46  44  95 S6        30.18F
CARO             N/A     44  43  98 CALM      30.19R
DETROIT CITY   CLEAR     54  44  69 CALM      30.21S
DETROIT        PTCLDY    52  46  80 CALM      30.21S
FLINT          CLEAR     47  43  86 CALM      30.21S
GROSSE ILE     CLEAR     52  46  82 CALM      30.19F
HILLSDALE      CLEAR     44  44 100 CALM      30.21S
HOWELL         CLEAR     47  45  92 CALM      30.20S

CITY           SKY/WX    TMP DP  RH WIND       PRES   REMARKS
JACKSON        CLEAR     46  43  89 CALM      30.21R
LAMBERTVILLE   CLEAR     48  46  93 CALM      30.22S
LANSING        CLEAR     47  44  90 CALM      30.21R
LAPEER         FAIR      44  43  97 CALM      30.20S
MASON          CLEAR     45  44  96 CALM      30.21S
MONROE         CLEAR     48  46  93 CALM      30.19F
MT. CLEMENS    CLEAR     49  42  75 SW1       30.19F
PONTIAC        PTCLDY    47  43  86 CALM      30.20S
PORT HOPE        N/A     50  43  77 VRB3      30.16F
PORT HURON     CLEAR     46  46 100 CALM      30.20F
TRI CITIES     CLEAR     49  44  83 SW7       30.19S
TROY           CLEAR     52  46  78 CALM      30.22S
SAGINAW HB     CLEAR     46  46 100 CALM      30.18S
$$
MIZ043>046-050>051-056>058-064>065-071>073-077>080-150500-
SOUTHWEST LOWER MICHIGAN

CITY           SKY/WX    TMP DP  RH WIND       PRES   REMARKS
BATTLE CREEK   CLEAR     50  45  83 CALM      30.21R
BENTON HARBOR  CLEAR     46  45  96 E3        30.19S
BIG RAPIDS     CLEAR     44  44 100 CALM      30.16S
COLDWATER      CLEAR     47  46  97 CALM      30.21R
FREMONT        FAIR      47  43  87 CALM      30.17S
HOLLAND        CLEAR     48  44  86 SE3       30.19S
GRAND RAPIDS   CLEAR     47  44  90 S6        30.19F
IONIA          FAIR      47  45  95 S3        30.19S
KALAMAZOO      CLEAR     47  44  90 CALM      30.21R
LUDINGTON      PTCLDY    55  50  85 SE5       30.14R
MARSHALL       CLEAR     44  43  96 CALM      30.21R
MOUNT PLEASANT CLEAR     44  42  91 CALM      30.17S
MUSKEGON       CLEAR     51  45  79 CALM      30.17F
SOUTH HAVEN    CLEAR     48  47  95 CALM      30.19S
$$
MIZ016>042-150500-
NORTHERN LOWER MICHIGAN

CITY           SKY/WX    TMP DP  RH WIND       PRES   REMARKS
ALPENA         MOCLDY    49  45  86 S6        30.12F
BEAVER ISLAND  PTCLDY    56  54  91 SW13G18   30.05F
BELLAIRE       CLOUDY    51  46  80 S5        30.11R
CADILLAC       CLEAR     46  44  93 S6        30.14S
CHARLEVOIX     MOCLDY    56  49  78 SW10      30.10S
FRANKFORT      CLOUDY    56  48  74 S5        30.10S
GAYLORD        PTCLDY    48  42  80 SW9       30.11S
GRAYLING       MOCLDY    49  44  83 S5        30.14S
HARBOR SPRINGS MOCLDY    54  46  74 CALM      30.08S
HOUGHTON LAKE  CLEAR     49  43  80 SW8       30.15S
MANISTEE       PTCLDY    50  45  81 CALM      30.13S
OSCODA         CLEAR     49  45  85 CALM      30.14F
PELLSTON       CLOUDY    54  46  74 SW10      30.08S
ROGERS CITY    CLOUDY    51  46  84 S10G16    30.10F
TRAVERSE CITY  MOCLDY    54  44  69 VRB7      30.10S
$$
MIZ007>008-015-150500-
EASTERN UPPER MICHIGAN

CITY           SKY/WX    TMP DP  RH WIND       PRES   REMARKS
KINROSS        MOCLDY    50  48  93 S7        30.04F
MACKINAC ISLAN CLOUDY    53  49  88 SW8       30.07S
NEWBERRY       MOCLDY    50  48  94 W8        30.04S
S. S. MARIE    MOCLDY    51  47  86 S8        30.03F
$$
MIZ004>006-011>014-085-150500-
CENTRAL UPPER MICHIGAN

CITY           SKY/WX    TMP DP  RH WIND       PRES   REMARKS
MANISTIQUE     CLOUDY    51  50  94 NW3       30.05S
ESCANABA       PTCLDY    50  46  87 NW7       30.07R
MENOMINEE      MOCLDY    54  46  76 W3        30.07S
SAWYER-GWINN   PTCLDY    48  42  82 W5        30.06S
$$
MIZ001>003-009>011-084-150500-
WESTERN UPPER MICHIGAN

CITY           SKY/WX    TMP DP  RH WIND       PRES   REMARKS
IRON MOUNTAIN  PTCLDY    45  43  93 CALM      30.06S
HOUGHTON       PTCLDY    49  42  77 W14       30.03R
COPPER HARBOR    N/A     52  43  71 NW9G20    30.00S
IRONWOOD       CLEAR     45  43  93 W6        30.06S
$$

ABBREVIATIONS USED IN REMARKS
   TC - TEMPERATURE IN CELSIUS
  WCI - WIND CHILL INDEX
   HX - HEAT INDEX
  VSB - VISIBILITY




USA.gov is the U.S. government's official web portal to all federal, state and local government web resources and services.